This demonstration page uses our WeatherBlox Daily Observations layout. Learn more.

38.89511, -77.03637

Hourly Observations for December 9, 2018

Temp ( °F °C ) Dew Point ( °F °C ) Humidity (%) Winds ( mph kmh ) Pressure ( in mb ) Visibility ( mi km ) Precip ( " mm )
12:52 am 00:52 Cloudy 34 1.1 18 -7.8 52 52 NE 8 13 30.53 1034 10 16.09344 0 0
1:52 am 01:52 Cloudy 33 0.6 18 -7.8 54 54 NNE 8 13 30.53 1034 10 16.09344 0 0
2:52 am 02:52 Cloudy 33 0.6 18 -7.8 54 54 NE 9 15 30.5 1033 10 16.09344 0 0
3:52 am 03:52 Cloudy 32 0 17 -8.3 54 54 NE 8 13 30.5 1033 10 16.09344 0 0
4:52 am 04:52 Cloudy 32 0 18 -7.8 56 56 ENE 6 9 30.5 1033 10 16.09344 0 0
5:52 am 05:52 Cloudy 32 0 18 -7.8 56 56 NE 6 9 30.48 1032 10 16.09344 0 0
6:52 am 06:52 Cloudy 32 0 18 -7.8 56 56 NNE 7 11 30.48 1032 10 16.09344 0 0
7:52 am 07:52 Cloudy 32 0 18 -7.8 56 56 NE 7 11 30.48 1032 10 16.09344 0 0
8:52 am 08:52 Cloudy 32 0 19 -7.2 59 59 NE 6 9 30.45 1031 10 16.09344 0 0
9:52 am 09:52 Cloudy 33 0.6 20 -6.7 58 58 NE 8 13 30.42 1030 10 16.09344 0 0
10:52 am 10:52 Cloudy 34 1.1 19 -7.2 54 54 NE 6 9 30.45 1031 10 16.09344 0 0
11:52 am 11:52 Cloudy 34 1.1 20 -6.7 56 56 NNE 9 15 30.36 1028 10 16.09344 0 0
12:52 pm 12:52 Mostly Cloudy 35 1.7 20 -6.7 54 54 NNE 8 13 30.36 1028 10 16.09344 0 0
1:52 pm 13:52 Cloudy 35 1.7 20 -6.7 54 54 NNE 10 17 30.33 1027 10 16.09344 0 0
2:52 pm 14:52 Cloudy 35 1.7 20 -6.7 54 54 NNE 14 22 30.27 1025 9 14.484096 0 0
3:52 pm 15:52 Cloudy 35 1.7 20 -6.7 54 54 NNE 14 22 30.27 1025 10 16.09344 0 0
4:52 pm 16:52 Cloudy 35 1.7 19 -7.2 52 52 NNE 9 15 30.27 1025 10 16.09344 0 0
5:52 pm 17:52 Cloudy 35 1.7 20 -6.7 54 54 NNE 9 15 30.24 1024 10 16.09344 0 0
6:52 pm 18:52 Cloudy 35 1.7 19 -7.2 52 52 NNE 12 19 30.24 1024 10 16.09344 0 0
7:52 pm 19:52 Cloudy 35 1.7 18 -7.8 50 50 NNE 14 22 30.21 1023 10 16.09344 0 0
8:52 pm 20:52 Cloudy 35 1.7 18 -7.8 50 50 N 9 15 30.18 1022 10 16.09344 0 0
9:52 pm 21:52 Mostly Cloudy 35 1.7 18 -7.8 50 50 N 12 19 30.18 1022 10 16.09344 0 0
10:52 pm 22:52 Mostly Cloudy 34 1.1 18 -7.8 52 52 N 12 19 30.12 1020 10 16.09344 0 0
11:52 pm 23:52 Cloudy 33 0.6 18 -7.8 54 54 N 10 17 30.12 1020 10 16.09344 0 0

Powered by AerisWeather